Regional Weather Roundup
Issued by NWS

Home | Current Version | Previous Version | Graphics & Text | Print | Product List | Glossary On
Versions: 1 2 3 4 5 6 7 8 9 10 11 12 13 14 15 16 17 18 19 20 21 22 23 24 25 26 27 28 29 30 31 32 33 34 35 36 37 38 39 40 41 42 43 44 45 46 47 48 49 50
000
ASUS43 KLOT 242212
RWRIL

ILLINOIS REGIONAL WEATHER ROUNDUP
NATIONAL WEATHER SERVICE CHICAGO/ROMEOVILLE IL
500 PM CDT FRI APR 24 2015

NOTE: "FAIR" INDICATES FEW OR NO CLOUDS BELOW 12,000 FEET WITH NO
SIGNIFICANT WEATHER AND/OR OBSTRUCTIONS TO VISIBILITY.

* THESE STATIONS ARE NOT UNDER NWS QUALITY CONTROL. THEY ALSO MAY NOT
  REPORT WEATHER SUCH AS PRECIPITATION OR FOG.

ILZ001-002-007-009-015-016-024-242300-
NORTHWEST ILLINOIS

CITY           SKY/WX    TMP DP  RH WIND       PRES   REMARKS
MOLINE         LGT RAIN  51  43  74 N9        29.87R
STERLING*      CLOUDY    54  34  47 E12       29.87F
SAVANNA*       RAIN      47  41  78 NE7       29.91R
$$

ILZ003-004-008-010-011-017-018-242300-
NORTH CENTRAL ILLINOIS

CITY           SKY/WX    TMP DP  RH WIND       PRES   REMARKS
ROCKFORD       LGT RAIN  52  31  44 NE14      29.94S
FREEPORT*      LGT RAIN  48  34  58 E12       29.92S
ROCHELLE*      CLOUDY    56  26  31 NE16      29.90S
DE KALB*       CLOUDY    55  22  28 E12       29.90S
PERU*          CLOUDY    63  24  22 SE17G23   29.86F
$$

ILZ005-006-012>014-019>023-242300-
NORTHEAST ILLINOIS

CITY           SKY/WX    TMP DP  RH WIND       PRES   REMARKS
CHICAGO-OHARE  CLOUDY    52  22  30 NE13      29.93F
CHICAGO-MIDWAY CLOUDY    53  23  31 NE16      29.94S
AURORA         CLOUDY    61  23  23 E13       29.90S
LANSING*       CLOUDY    54  20  26 NE10      29.92F
JOLIET*        CLOUDY    63  24  22 SE7       29.91S
WAUKEGAN       LGT RAIN  41  36  82 NE5       29.97F
DUPAGE AIRPORT PTSUNNY   54  21  27 NE17      29.91S
KANKAKEE*      CLOUDY    62  29  29 SE12      29.92S
WHEELING       CLOUDY    47  30  51 NE10      29.95F
MORRIS*        CLOUDY    63  23  22 SE14      29.88S
ROMEOVILLE*    CLOUDY    59  23  24 E9        29.91R
NORTHERLY ISL    N/A     47  32  56 NE12        N/A
$$

LMZ740>746-242300-
SOUTHERN LAKE MICHIGAN

STATION/POSITION SKY/WX   TEMP    WIND        PRES    VSBY  WAVE
                          AIR SEA DIR/SP/G                  HT/PER
                          (F)     (DEG/KT/KT) (MB)    (MI)  (FT/S)
HARRISON CRIB              42      60/ 16/ 18   N/A
BURNHAM HARBOR             46      50/ 13/ 15   N/A
CALUMET HARBOR             46      50/ 10/ 13   N/A
BURNS HARBOR               48      70/ 15/ 17 1014.9
MICHIGAN CITY              47      30/ 13/ 15   N/A
MICHIGAN CITY 6N           45 44   80/ 12/ 16   N/A           1/ 2
$$

ILZ025>027-034>036-040-047-049-050-058-095>099-242300-
WEST-CENTRAL ILLINOIS

CITY           SKY/WX    TMP DP  RH WIND       PRES   REMARKS
QUINCY         CLOUDY    65  37  35 S14G25    29.75F
GALESBURG*     CLOUDY    60  32  35 SE15G22   29.80F
MACOMB*        CLOUDY    64  33  31 SE21      29.81F
JACKSONVILLE*  CLOUDY    62  36  37 SE13G21   29.82F
PITTSFIELD*    CLOUDY    65  37  35 SE17      29.79F
$$

ILZ028>032-037-038-041>044-048-051>054-059>061-242300-
CENTRAL ILLINOIS

CITY           SKY/WX    TMP DP  RH WIND       PRES   REMARKS
PONTIAC        CLOUDY    64  26  23 SE16      29.89F
BLOOMINGTON    CLOUDY    61  29  29 S21       29.88F
DECATUR        CLOUDY    60  30  32 S15       29.89F
PEORIA         CLOUDY    63  29  27 S16G26    29.85F
LACON*         CLOUDY    61  26  26 S15       29.83F
LINCOLN*       CLOUDY    61  31  32 SE10G18   29.86F
SPRINGFIELD    CLOUDY    62  33  33 S20       29.85F
TAYLORVILLE    CLOUDY    59  32  36 S12       29.87F
$$

ILZ033-039-045-046-055>057-062-063-242300-
EAST-CENTRAL ILLINOIS

CITY           SKY/WX    TMP DP  RH WIND       PRES   REMARKS
CHAMPAIGN      CLOUDY    61  27  27 SE17      29.90F
DANVILLE*      CLOUDY    59  28  30 SE8       29.91F
RANTOUL*       CLOUDY    62  26  25 SE16      29.91F
MATTOON        CLOUDY    59  30  33 S13       29.91F
PARIS*         CLOUDY    60  32  34 SE9       29.93F
$$

ILZ079-100>102-242300-
SOUTHWEST ILLINOIS

CITY           SKY/WX    TMP DP  RH WIND       PRES   REMARKS
BELLEVILLE     CLOUDY    61  38  42 S9G22     29.84F
CAHOKIA*       CLOUDY    62  39  42 S14G26    29.84F
SPARTA*        CLOUDY    59  37  43 S21G26    29.88F
$$

ILZ064>066-069>071-074>076-080>082-084>086-088>090-092>094-242300-
SOUTH-CENTRAL ILLINOIS

CITY           SKY/WX    TMP DP  RH WIND       PRES   REMARKS
CARBONDALE     CLOUDY    60  36  40 S15       29.90F
CAIRO*         CLOUDY    58  46  63 E9        29.93F
EFFINGHAM*     CLOUDY    60  26  27 SE8G17    29.92F
MARION         CLOUDY    61  36  39 S14       29.93F
MT. VERNON     CLOUDY    63  32  31 S13       29.92F
CENTRALIA*     CLOUDY    62  32  32 S14G23    29.89F
SALEM*         CLOUDY    65  29  26 SE10G16   29.89F
METROPOLIS*    RAIN      59  42  53 S5        29.95F
$$

ILZ067-068-072-073-078-083-087-091-242300-
SOUTHEAST ILLINOIS

CITY           SKY/WX    TMP DP  RH WIND       PRES   REMARKS
LAWRENCEVILLE  CLOUDY    62  30  29 S12       29.93F
FLORA*         CLOUDY    61  33  34 SE14      29.92F
FAIRFIELD*     CLOUDY    63  33  33 SE14      29.92F
HARRISBURG*    CLOUDY    61  34  36 S13       29.96F
ROBINSON*      CLOUDY    62  29  29 SE8       29.94F
CARMI*         CLOUDY    62  26  24 SE12      29.94F
$$

ABBREVIATIONS USED IN REMARKS
   TC - TEMPERATURE IN CELSIUS
  WCI - WIND CHILL INDEX
   HX - HEAT INDEX
  VSB - VISIBILITY
$$




USA.gov is the U.S. government's official web portal to all federal, state and local government web resources and services.